Location: Franzen
(48.6167°N, 15.3833°E)
Time: 13:14:32
(UTC+00:00)

Cosmos 2263 Rocket - Pass Details

Date: 22 April 2021
Orbit: 824 x 848 km, 71.0° (Epoch: 16 May)

Event Time Altitude Azimuth Distance (km) Brightness Sun altitude
Exits shadow 22:16:15 35° 262° (W) 1,300 3.1 -28.2°
Maximum altitude 22:17:56 46° 306° (NW) 1,104 3.0 -28.3°
Drops below altitude 10° 22:23:18 10° 19° (NNE) 2,440 5.3 -28.4°
Sets 22:25:52 0° 26° (NNE) 3,379 6.1 -28.5°
